Flag for Germany Weather past 2 weeks in Pirmasens, Rhineland-Palatinate, Germany

Now
72 °F

Passing clouds.


Feels Like: 77 °F
Forecast: 49 / 71 °F
Wind: 8 mph from East

Location: Zweibrucken - Rheinland-Pfalz


UV Index: 3 (Moderate)

Visibility: N/A


Pressure: 30.04 "Hg

Humidity: 47%

Dew point: 50 °F

Location of PirmasensLocation

Historic Weather in Pirmasens

°F

Pirmasens temperature yesterday

Maximum temperature yesterday: 70 °F (at 4:20 PM)
Minimum temperature yesterday: 45 °F (at 7:50 AM)
Average temperature yesterday: 62 °F

Past Weeks' High & Low Weather Summary

 TemperatureHumidityPressure
High72 °F (Apr 24, 12:50 PM)94% (Apr 12, 8:50 AM)30.36 "Hg (Apr 12, 8:50 AM)
Low36 °F (Apr 10, 6:50 AM)29% (Apr 17, 4:50 PM)29.62 "Hg (Apr 21, 11:50 AM)
Average55 °F59%30.03 "Hg
* Reported Apr 9 1:20 PM — Apr 24 1:50 PM, Pirmasens, Weather by CustomWeather, © 2014

Note: Actual official high and low records may vary slightly from our data, if they occured in-between our weather recording intervals... More about our weather records

Advertising

Historic Weather Conditions — Data for Previous 24 hours

 ConditionsComfort  
Time TempWeatherWind HumidityBarometerVisibility
1:50 PM
Apr 24
72 °FPassing clouds.8 mph47%30.04 "HgN/A
1:20 PM72 °FPassing clouds.3 mph47%30.04 "HgN/A
12:50 PM72 °FPassing clouds.3 mph53%30.04 "HgN/A
12:20 PM68 °FSunny.5 mph53%30.07 "Hg10 mi
11:50 AM68 °FSunny.5 mph60%30.07 "Hg10 mi
11:20 AM64 °FPassing clouds.6 mph60%30.09 "HgN/A
10:50 AM64 °FPassing clouds.6 mph64%30.09 "HgN/A
10:20 AM63 °FPassing clouds.7 mph73%30.09 "HgN/A
9:50 AM61 °FSunny.6 mph77%30.09 "Hg10 mi
9:20 AM61 °FPassing clouds.5 mph77%30.09 "HgN/A
8:50 AM57 °FPassing clouds.5 mph82%30.09 "HgN/A
8:20 AM57 °FClear.3 mph77%30.09 "Hg10 mi
7:50 AM55 °FClear.2 mph82%30.09 "Hg10 mi
9:20 PM
Apr 23
57 °FSunny.7 mph77%30.09 "Hg10 mi
8:20 PM57 °FSunny.2 mph77%30.09 "Hg10 mi
7:50 PM59 °FSprinkles. Partly sunny.7 mph72%30.09 "HgN/A
7:20 PM59 °FSunny.7 mph72%30.09 "Hg10 mi
6:50 PM61 °FSunny.9 mph63%30.07 "Hg10 mi
6:20 PM63 °FSprinkles. Partly sunny.3 mph59%30.07 "HgN/A
5:50 PM64 °FScattered showers. Broken clouds.5 mph60%30.07 "HgN/A
5:20 PM68 °FSunny.1 mph43%30.07 "Hg10 mi
4:50 PM68 °FSunny.1 mph46%30.07 "Hg10 mi
4:20 PM70 °FSunny.3 mph43%30.07 "Hg10 mi
3:50 PM68 °FSunny.2 mph46%30.07 "Hg10 mi
3:20 PM68 °FSunny.2 mph43%30.07 "Hg10 mi
Weather by CustomWeather, © 2014

See weather overview